Theta_e
323 313 313 308 299 297 292 293 298 301 308 321 325 321 318 321 316 312 332 337 344 343 343 345 345 347 347 347 347 348 347 345 342 341 341 341 342 341 340 340 340 341 341 343 343 341 339 342 341
315 313 309 302 295 291 292 295 296 309 315 320 320 321 321 319 327 327 328 339 343 343 343 344 344 346 347 347 346 346 345 343 341 341 341 342 341 340 340 339 339 342 344 344 343 341 340 341 339
311 306 305 297 292 290 291 295 302 311 319 319 318 321 321 319 327 328 336 342 343 343 343 344 344 345 345 345 344 343 343 341 340 340 341 341 341 339 339 339 338 339 341 341 342 342 341 338 337
306 304 300 296 292 294 294 297 311 312 315 317 318 315 324 332 332 334 338 343 342 343 343 342 341 343 345 345 344 342 341 339 339 339 340 340 340 339 338 337 336 338 339 337 339 338 335 335 334
303 301 295 292 292 294 299 310 313 312 313 314 315 313 319 330 336 337 340 342 341 341 342 344 339 342 345 345 343 341 340 339 338 339 340 340 340 339 338 337 336 336 337 336 335 334 334 333 333
302 299 294 291 292 296 304 313 313 312 313 314 315 315 318 331 334 337 340 340 343 341 340 341 340 341 340 341 341 339 338 338 338 338 339 339 339 338 337 336 336 335 334 334 334 333 333 332 331
300 298 293 292 293 295 304 315 311 311 311 311 317 313 321 327 332 334 335 337 337 336 335 336 337 337 337 338 337 336 337 337 337 338 338 337 336 336 335 335 334 335 334 333 332 332 330 330 329
300 299 292 293 293 295 309 313 314 311 310 320 321 313 316 325 331 332 333 333 333 333 334 333 332 329 331 335 335 335 335 335 335 335 334 333 333 334 334 333 334 334 334 334 331 330 329 326 325
300 297 292 293 293 298 312 309 313 316 317 318 321 319 325 329 330 329 328 327 328 329 331 331 327 330 329 331 334 334 335 334 333 333 332 329 330 329 329 331 333 332 330 328 324 322 321 321 320
299 295 295 298 298 304 310 309 310 311 314 315 317 324 327 327 327 325 323 320 321 321 324 327 327 326 327 332 332 334 333 332 332 330 330 328 329 330 328 330 330 328 326 324 320 317 315 314 311
296 296 298 298 299 310 309 309 312 309 308 315 316 320 323 323 324 322 320 321 321 320 320 320 322 328 327 328 330 329 329 329 329 329 327 328 328 330 329 329 325 321 318 313 311 311 312 311 311
296 298 298 301 309 310 309 310 308 310 310 318 322 323 322 320 321 320 319 318 318 319 321 320 321 321 331 330 329 327 326 326 326 326 328 329 328 329 328 326 320 316 313 313 311 311 311 310 310
296 300 307 307 309 309 309 306 307 313 320 322 322 322 320 320 321 321 320 319 319 319 320 319 323 329 331 330 329 326 326 326 328 328 329 331 329 329 325 319 315 312 312 311 310 309 308 309 308
306 305 306 308 308 308 305 306 307 313 321 319 320 318 319 320 321 320 319 319 319 320 322 323 327 331 330 329 328 326 326 327 327 329 329 331 329 325 318 315 312 311 311 311 310 308 307 307 307
305 303 304 306 308 306 307 303 304 314 319 315 318 319 320 321 323 320 321 320 321 322 323 323 329 332 330 328 327 326 326 327 327 328 330 330 327 322 318 315 312 310 311 310 306 308 308 307 306
302 299 296 303 306 305 305 299 306 317 316 314 315 318 319 319 321 322 323 323 323 324 325 327 328 330 329 327 326 326 327 330 331 332 329 327 324 321 317 313 311 311 311 309 308 308 307 306 306
296 294 294 297 306 304 303 299 308 317 316 314 315 316 318 318 318 320 323 324 325 326 326 327 330 330 330 328 327 328 330 330 329 328 327 323 321 319 315 312 311 311 310 310 308 307 307 306 306
293 292 295 296 300 304 301 301 309 314 314 314 315 316 316 317 317 320 322 323 325 327 327 329 330 329 328 327 326 327 328 327 327 327 325 321 319 317 315 312 311 311 309 308 308 307 307 306 306
296 296 295 298 301 299 298 298 301 313 314 313 314 314 316 317 320 321 322 323 323 326 326 327 327 327 325 323 321 321 323 323 322 323 321 319 317 316 312 311 310 310 309 308 308 307 306 305 306
298 296 296 298 300 299 298 298 300 309 312 315 315 315 317 318 318 319 321 323 322 323 325 325 326 324 325 325 324 324 323 321 321 320 319 318 316 313 311 311 309 309 307 307 307 307 305 305 305
297 295 295 295 298 298 296 295 298 301 309 313 316 317 318 318 318 319 319 321 322 321 323 324 325 325 325 326 323 319 318 317 316 316 315 314 312 310 311 310 309 309 308 307 307 307 304 302 302
294 299 298 296 295 291 295 288 293 298 301 306 311 315 317 318 319 321 320 320 322 322 325 325 325 324 324 324 323 320 321 317 317 316 313 311 311 310 310 309 309 308 307 307 306 305 304 302 298
297 299 298 297 295 293 292 291 295 296 296 301 306 312 316 318 319 320 321 322 323 323 324 325 325 324 324 323 323 322 320 319 316 314 312 311 311 311 309 309 308 307 307 306 305 303 300 299 298
300 299 296 295 294 290 292 292 294 295 298 301 305 308 312 317 318 320 322 322 321 322 323 324 323 323 323 322 322 321 319 315 313 313 311 311 311 310 308 307 307 307 305 303 300 302 298 298 297
298 294 288 287 288 287 293 290 295 299 301 301 303 307 310 314 317 316 316 317 318 319 322 323 322 322 321 320 320 319 319 316 314 314 311 310 309 307 306 306 305 304 304 302 300 300 299 295 296
296 295 290 282 284 287 291 289 296 301 303 304 305 305 307 309 313 314 315 316 317 319 321 321 321 322 321 319 320 319 318 317 316 311 312 311 308 306 306 305 304 304 303 299 298 299 297 298 299
296 293 296 289 288 287 290 293 297 299 300 304 305 305 305 307 308 311 313 316 317 318 320 321 322 322 322 321 320 320 320 318 314 312 314 312 309 305 304 304 304 301 301 299 297 297 296 299 299
298 299 292 291 284 282 286 287 291 297 298 301 303 305 306 307 306 307 310 314 317 319 321 322 323 322 322 322 322 321 320 318 315 312 311 309 305 304 303 302 299 300 299 298 298 296 298 298 298
296 295 293 293 290 286 283 288 297 298 299 302 303 305 307 309 310 310 313 316 319 321 321 322 323 323 322 323 321 320 321 317 313 310 309 306 304 302 299 301 301 298 297 297 295 297 298 296 297
298 296 295 291 288 288 287 288 299 300 299 300 303 305 308 310 313 314 315 318 319 320 322 322 322 322 323 322 320 317 313 309 307 305 304 304 302 301 301 299 299 299 296 296 296 297 296 296 295
Wind_Speed
4 3 2 2 4 1 3 2 2 3 3 1 5 1 1 6 1 1 2 2 16 19 21 20 18 18 19 20 20 21 21 21 21 21 21 20 19 18 17 17 17 17 18 18 17 17 18 20 18
5 3 2 2 2 2 2 2 4 1 5 1 1 1 3 4 4 4 7 6 16 20 19 20 19 19 19 19 20 20 20 21 20 20 21 20 19 18 17 18 17 17 19 20 21 21 20 19 17
4 4 1 2 1 3 3 3 1 8 5 4 3 7 1 2 5 8 4 9 13 18 17 20 20 20 21 20 21 21 21 19 20 19 20 19 19 19 17 18 16 17 18 22 22 22 20 17 16
2 2 3 1 4 5 4 2 3 2 2 3 2 4 1 3 2 5 11 14 17 16 16 19 20 22 22 21 21 21 21 20 19 20 20 19 18 18 16 17 16 17 17 20 21 20 18 16 15
3 2 2 2 4 4 4 3 2 2 0 4 3 1 5 5 4 6 9 17 18 13 14 19 20 24 21 21 21 21 21 20 18 18 18 19 17 16 14 16 16 16 17 18 19 17 17 15 15
2 1 1 3 4 4 3 1 2 1 1 5 4 3 1 3 3 7 7 8 11 13 12 15 15 22 22 20 18 20 19 20 16 16 15 16 16 14 14 15 14 15 16 17 17 16 15 14 13
2 2 1 4 5 5 1 1 3 2 1 3 5 4 1 2 6 8 9 11 12 13 9 8 11 12 17 17 13 18 17 20 17 15 15 14 12 12 13 14 15 14 14 15 16 15 14 14 13
3 1 2 3 3 4 0 2 3 1 2 3 1 6 5 2 8 10 11 12 11 12 10 9 15 13 7 11 17 12 13 16 18 17 15 12 12 11 12 13 14 15 15 16 17 16 15 15 14
3 1 3 4 3 4 1 2 2 2 4 2 3 2 7 10 12 12 9 10 10 7 10 13 17 10 9 5 12 11 11 16 18 17 14 9 7 9 10 11 14 16 17 17 17 18 17 17 16
3 4 7 6 4 2 1 2 3 4 4 3 3 7 10 10 12 10 11 8 12 12 10 13 14 11 9 4 4 7 9 8 10 11 11 7 8 7 9 10 14 17 17 17 18 17 15 10 7
3 5 4 5 7 1 3 2 2 2 5 8 10 14 11 9 9 10 9 12 16 15 13 13 9 7 12 9 5 4 4 6 7 10 8 7 6 6 5 6 6 8 11 8 9 9 7 9 6
3 8 5 4 2 4 4 3 0 3 2 5 10 13 11 13 10 11 14 13 15 14 16 16 7 10 7 7 5 5 5 6 6 7 8 7 5 6 5 5 6 7 6 9 8 6 9 10 10
3 3 4 5 5 4 2 3 2 3 8 12 14 12 9 9 9 7 13 13 16 19 17 18 15 6 4 6 5 5 5 5 6 6 7 6 7 7 6 6 6 7 7 7 7 7 8 8 8
3 1 3 5 2 1 1 2 1 1 5 12 12 12 8 10 12 11 10 14 14 16 17 15 11 7 6 7 7 6 6 6 6 6 7 8 6 6 6 8 8 7 7 7 7 7 6 6 7
1 1 3 2 3 1 2 4 4 4 8 10 9 9 9 11 13 20 14 10 16 13 14 13 9 7 9 8 8 6 6 7 6 6 6 6 7 8 9 7 7 7 7 10 7 7 6 6 5
3 2 2 1 3 2 4 5 3 10 12 11 9 8 8 10 14 14 16 15 16 14 13 12 9 8 8 7 6 6 7 6 6 4 5 8 9 10 9 8 8 8 7 7 6 6 6 4 4
4 2 1 3 5 3 4 5 2 11 10 10 10 9 9 8 9 11 14 16 15 14 15 14 11 10 10 8 5 6 7 5 5 5 5 8 10 10 9 8 8 8 6 6 5 5 4 4 3
4 3 3 5 2 5 6 10 4 11 11 9 9 10 11 12 14 14 15 14 14 14 12 11 9 10 9 6 6 5 5 4 4 5 6 9 9 12 10 8 9 8 7 6 5 6 4 3 3
2 3 3 3 5 4 5 9 10 12 10 10 11 12 13 15 13 12 13 13 14 14 13 13 12 12 10 8 6 5 5 5 4 4 7 10 10 11 9 8 9 7 7 7 7 6 5 3 1
2 4 4 2 3 3 6 9 5 15 16 16 14 13 15 13 13 15 14 14 14 15 15 13 13 13 12 8 7 5 6 5 4 4 6 9 10 10 9 10 9 8 7 8 7 6 3 1 2
4 4 3 5 3 2 4 4 3 6 9 10 13 13 11 14 16 16 16 17 15 16 17 14 14 14 12 11 8 5 6 4 4 6 7 8 9 10 10 10 8 8 6 6 6 5 5 4 4
5 6 6 3 0 1 2 3 3 5 10 13 16 15 16 16 14 15 17 18 17 15 13 13 13 14 13 14 11 12 10 9 7 8 6 7 8 10 9 10 9 9 6 7 5 4 4 3 3
5 2 2 1 3 2 1 2 4 0 8 17 19 19 19 18 19 19 19 17 16 15 15 14 14 14 13 13 12 10 10 6 6 6 9 8 8 9 10 10 10 9 7 8 9 6 4 1 2
5 4 5 3 1 1 0 3 4 4 4 4 11 17 18 19 19 19 15 15 14 13 13 13 15 14 14 14 14 14 12 9 6 7 8 8 8 8 10 11 10 10 10 9 5 7 6 5 4
3 4 1 1 1 2 3 2 8 4 7 7 9 11 16 19 17 17 17 16 15 17 17 14 15 16 15 14 14 15 13 11 10 11 8 11 9 9 11 13 12 10 10 7 6 7 8 5 5
5 4 4 3 3 1 2 4 3 5 9 8 8 7 8 14 15 17 19 18 17 17 16 15 17 17 17 14 14 12 13 7 8 9 9 9 9 9 12 12 12 10 9 4 3 4 2 4 4
4 3 2 7 2 1 2 4 9 1 6 5 8 7 4 8 12 16 14 15 16 17 19 17 17 16 16 16 11 12 13 12 10 9 11 10 10 9 13 12 10 6 7 7 6 3 4 5 5
2 8 3 2 3 3 3 3 3 6 6 4 4 5 6 4 7 9 12 14 13 14 14 15 16 17 15 14 13 11 14 12 10 9 13 12 12 15 14 12 9 8 6 4 5 4 5 5 4
4 2 4 4 2 3 2 4 7 5 2 5 4 4 5 6 7 8 10 10 11 11 13 13 15 15 14 14 12 12 14 11 9 8 9 11 14 13 12 12 8 7 6 4 2 6 6 6 7
2 6 6 4 5 1 2 6 5 8 5 5 9 6 4 6 5 5 7 9 10 12 12 14 12 13 12 11 9 8 6 7 9 9 10 11 12 8 11 6 5 5 5 5 8 8 7 8 8
Wind_Direction
120 80 70 39 236 312 256 230 254 259 181 274 297 61 129 50 149 89 107 288 143 144 149 149 142 137 132 127 124 120 119 119 119 118 114 115 115 114 115 111 106 103 104 107 109 125 117 108 100
107 80 63 82 248 248 261 240 221 262 267 201 79 276 353 86 57 84 121 194 147 146 152 151 144 140 134 128 124 121 123 125 124 121 117 117 117 116 117 112 108 106 107 104 106 117 117 107 99
96 46 331 71 115 246 260 218 23 303 322 318 80 42 237 42 99 138 118 174 148 145 151 149 144 141 136 134 132 131 128 125 124 123 120 120 118 117 116 113 108 106 106 104 108 113 111 103 97
72 63 92 286 257 246 247 333 37 5 9 37 64 78 112 353 274 134 129 175 161 139 151 147 147 143 139 136 133 129 126 124 126 124 120 121 118 113 115 110 109 102 106 110 113 112 108 103 102
48 82 67 280 271 266 256 300 76 209 144 26 13 47 27 354 65 104 172 178 138 138 152 154 156 145 134 129 127 123 121 124 123 123 121 117 115 109 107 107 102 101 100 102 109 109 104 105 104
92 126 67 268 265 269 287 168 93 297 58 108 104 98 327 323 93 106 94 109 158 134 158 155 153 134 122 119 123 121 124 113 116 110 112 110 110 111 110 104 108 103 99 99 105 109 107 106 104
131 118 194 273 282 296 347 129 92 162 87 84 134 126 130 160 91 87 83 81 95 97 93 105 96 107 125 120 117 114 128 121 117 109 99 97 102 108 107 108 108 106 107 102 94 90 89 90 97
111 94 158 247 280 306 95 108 134 170 121 110 95 168 172 147 108 95 91 87 95 106 108 108 105 90 337 126 107 101 114 108 109 102 101 108 104 104 98 103 102 103 107 102 99 95 91 88 85
153 70 261 256 217 272 151 135 144 83 118 79 340 193 132 130 120 108 103 89 97 89 108 106 112 128 117 66 99 86 111 119 115 113 116 113 122 116 115 100 103 106 101 101 101 94 89 87 80
159 198 225 206 202 244 188 197 153 185 133 103 87 117 121 143 130 125 129 107 106 94 95 110 107 111 107 123 100 142 137 123 116 124 127 127 126 123 119 107 105 97 103 100 95 90 86 86 87
170 231 241 250 229 162 145 227 163 144 211 194 183 161 148 146 141 121 108 134 124 119 105 92 103 134 138 177 156 112 120 122 115 123 128 129 128 123 121 124 112 122 109 100 96 95 89 93 91
230 251 255 309 137 133 186 140 199 212 315 311 153 161 162 159 140 132 130 124 127 131 131 131 161 147 157 138 122 135 136 124 128 135 143 142 136 135 131 126 133 118 102 104 92 96 96 87 86
213 295 326 2 101 63 104 35 333 325 3 117 140 159 168 149 128 129 134 137 148 142 144 152 176 186 151 124 141 141 139 146 140 143 155 146 153 147 136 137 129 118 122 107 119 108 96 94 82
163 109 56 49 72 100 127 32 325 198 120 125 155 166 163 159 141 139 141 150 150 158 164 172 181 175 160 162 163 152 143 149 157 159 165 174 161 144 135 143 127 135 122 122 111 108 101 92 90
145 322 80 84 180 157 107 261 232 148 169 150 169 177 162 153 151 140 144 148 154 160 167 184 197 183 174 178 160 157 155 156 177 181 179 180 155 150 144 128 140 129 123 118 109 101 95 98 96
10 43 18 266 187 60 218 287 140 173 178 163 176 167 183 170 162 153 169 172 174 177 191 197 195 184 173 173 166 163 163 175 177 180 167 167 154 156 145 152 137 137 136 121 112 112 105 109 105
22 310 296 283 200 121 257 292 134 189 200 182 178 177 189 175 177 166 170 184 195 199 195 195 191 189 178 165 165 165 165 172 163 163 171 157 160 159 152 147 140 145 130 118 128 113 124 109 83
199 208 237 315 159 195 224 259 184 199 199 216 194 188 188 191 198 186 177 184 190 196 195 191 185 182 164 152 156 162 166 171 166 177 177 161 168 162 151 147 142 145 135 129 127 125 98 78 38
179 196 265 273 161 246 227 274 220 195 208 213 208 203 200 205 196 197 193 194 194 199 196 192 179 177 165 160 165 176 175 178 185 185 168 172 167 161 151 155 150 154 147 132 132 122 131 106 49
167 220 240 301 301 319 325 305 233 191 209 207 212 208 212 198 193 194 198 196 199 200 202 194 196 180 183 177 176 179 177 187 183 172 172 189 166 163 166 155 156 154 138 142 154 151 139 122 238
226 218 206 264 346 308 306 275 198 207 241 222 224 228 222 209 203 200 199 202 197 203 199 199 195 190 188 188 164 125 127 122 156 181 180 179 169 165 165 157 153 151 151 154 158 148 156 185 193
254 218 206 213 319 271 315 301 274 215 216 222 232 215 222 210 213 211 204 207 205 207 201 200 193 192 190 186 187 183 191 184 196 185 178 169 164 167 161 155 156 156 151 153 141 152 172 176 224
230 149 163 158 186 252 139 230 277 181 232 227 222 220 216 212 211 212 211 204 203 194 195 195 194 195 189 192 197 197 197 190 161 173 165 167 166 168 164 164 159 156 158 154 153 153 157 105 235
137 83 44 61 119 328 217 239 273 231 236 270 227 222 220 215 212 218 210 201 197 187 188 190 195 198 189 192 194 203 203 182 162 179 177 182 173 167 172 167 166 160 153 154 151 149 162 188 201
114 104 216 114 129 202 128 174 254 260 251 249 280 242 217 214 211 212 205 197 190 189 194 193 196 201 194 189 193 203 203 186 189 194 188 178 179 178 180 172 161 159 154 148 145 175 183 191 201
175 195 156 179 189 234 196 230 242 220 294 288 289 285 241 214 213 213 210 202 194 190 190 192 197 205 197 189 197 199 195 188 199 197 190 196 187 178 167 163 160 148 139 143 166 181 199 204 206
159 183 121 106 36 171 263 274 272 251 306 306 314 316 293 231 218 221 214 204 197 194 194 200 199 204 200 197 194 200 205 199 200 197 205 191 178 160 158 156 145 141 152 173 158 196 212 208 206
182 146 132 67 177 238 244 264 240 310 336 314 331 322 295 269 228 220 213 206 204 203 198 197 204 207 203 202 206 208 206 204 192 185 196 182 160 154 152 152 152 159 200 178 183 209 213 211 211
147 175 70 115 168 204 253 247 214 237 231 286 287 271 270 245 226 216 211 208 203 196 196 199 203 207 205 204 205 202 212 201 181 180 178 171 155 156 158 158 158 160 183 190 187 231 231 227 231
174 168 155 152 194 217 278 254 233 252 251 274 280 282 266 270 267 214 195 192 192 196 197 201 203 208 210 207 193 201 184 151 140 143 151 153 151 147 156 160 163 162 175 194 213 223 224 229 236